• In Hungary
  • List of Countries
  • For 7 days
  • Water Temperature
  • Satellite Maps
  • Weather Map
  • News
  • Weather Widgets
  • user-avatar
    Login

    Hourly Weather Sultangulovo

    Today, 18 September, Tuesday

    Time Temperature Precipitation Wind Pressure Humidity
    00:00 +17°C° 0 mm 2 mps 733 mmHg 45%
    01:00 +18°C° 0 mm 2 mps 733 mmHg 43%
    02:00 +17°C° 0 mm 2 mps 733 mmHg 43%
    03:00 +17°C° 0 mm 2 mps 733 mmHg 43%
    04:00 +18°C° 0 mm 4 mps 732 mmHg 38%
    05:00 +18°C° 0 mm 4 mps 732 mmHg 42%
    06:00 +18°C° 0 mm 4 mps 732 mmHg 46%
    07:00 +18°C° 0 mm 4 mps 732 mmHg 50%
    08:00 +19°C° 0 mm 4 mps 732 mmHg 49%
    09:00 +20°C° 0 mm 5 mps 732 mmHg 49%
    10:00 +21°C° 0 mm 5 mps 732 mmHg 48%
    11:00 +22°C° 0 mm 6 mps 732 mmHg 45%
    12:00 +23°C° 0 mm 6 mps 731 mmHg 41%
    13:00 +24°C° 0 mm 6 mps 731 mmHg 37%
    14:00 +25°C° 0 mm 5 mps 731 mmHg 39%
    15:00 +23°C° 0 mm 4 mps 730 mmHg 40%
    16:00 +24°C° 0 mm 3 mps 730 mmHg 42%
    17:00 +21°C° 0 mm 3 mps 729 mmHg 48%
    18:00 +19°C° 0 mm 2 mps 729 mmHg 53%
    19:00 +17°C° 0 mm 2 mps 728 mmHg 59%
    20:00 +16°C° 0.3 mm 2 mps 728 mmHg 65%
    21:00 +16°C° 0.3 mm 3 mps 728 mmHg 71%
    22:00 +14°C° 0.3 mm 3 mps 727 mmHg 76%
    23:00 +14°C° 0.6 mm 2 mps 727 mmHg 81%

    Tomorrow, 19 September, Wednesday

    Time Temperature Precipitation Wind Pressure Humidity
    00:00 +14°C° 0.6 mm 2 mps 727 mmHg 86%
    01:00 +13°C° 0.6 mm 2 mps 726 mmHg 92%
    02:00 +13°C° 0.3 mm 2 mps 726 mmHg 92%
    03:00 +13°C° 0.3 mm 2 mps 726 mmHg 92%
    04:00 +11°C° 0.3 mm 3 mps 726 mmHg 93%
    05:00 +11°C° 0.2 mm 3 mps 726 mmHg 93%
    06:00 +11°C° 0.2 mm 4 mps 726 mmHg 93%
    07:00 +11°C° 0.2 mm 4 mps 725 mmHg 93%
    08:00 +11°C° 0.2 mm 4 mps 726 mmHg 90%
    09:00 +11°C° 0.2 mm 4 mps 726 mmHg 88%
    10:00 +10°C° 0.2 mm 5 mps 726 mmHg 85%
    11:00 +12°C° 0.2 mm 5 mps 726 mmHg 82%
    12:00 +12°C° 0.2 mm 5 mps 726 mmHg 79%
    13:00 +12°C° 0.2 mm 4 mps 726 mmHg 76%
    14:00 +12°C° 0.5 mm 4 mps 726 mmHg 78%
    15:00 +12°C° 0.5 mm 3 mps 726 mmHg 79%
    16:00 +12°C° 0.5 mm 3 mps 726 mmHg 81%
    17:00 +11°C° 0.1 mm 3 mps 726 mmHg 84%
    18:00 +10°C° 0.1 mm 2 mps 727 mmHg 86%
    19:00 +9°C° 0.1 mm 2 mps 727 mmHg 89%
    20:00 +9°C° 0 mm 2 mps 727 mmHg 90%
    21:00 +8°C° 0 mm 2 mps 727 mmHg 92%
    22:00 +7°C° 0 mm 2 mps 727 mmHg 93%
    23:00 +7°C° 0 mm 2 mps 727 mmHg 94%

    Day after tomorrow, 20 September, Thursday

    Time Temperature Precipitation Wind Pressure Humidity
    00:00 +7°C° 0 mm 2 mps 727 mmHg 95%
    01:00 +6°C° 0 mm 2 mps 727 mmHg 96%
    02:00 +7°C° 0 mm 2 mps 727 mmHg 96%
    03:00 +7°C° 0 mm 2 mps 728 mmHg 95%
    04:00 +7°C° 0 mm 2 mps 728 mmHg 95%
    05:00 +7°C° 0 mm 2 mps 728 mmHg 95%
    06:00 +7°C° 0 mm 2 mps 728 mmHg 95%
    07:00 +7°C° 0 mm 2 mps 728 mmHg 95%
    08:00 +8°C° 0 mm 3 mps 728 mmHg 91%
    09:00 +9°C° 0 mm 3 mps 729 mmHg 88%
    10:00 +8°C° 0 mm 4 mps 729 mmHg 84%
    11:00 +10°C° 0 mm 4 mps 729 mmHg 83%
    12:00 +10°C° 0 mm 4 mps 729 mmHg 81%
    13:00 +10°C° 0 mm 4 mps 729 mmHg 80%
    14:00 +10°C° 0.1 mm 4 mps 730 mmHg 80%
    15:00 +10°C° 0.1 mm 4 mps 730 mmHg 80%
    16:00 +10°C° 0.1 mm 4 mps 730 mmHg 81%
    17:00 +8°C° 0 mm 4 mps 730 mmHg 84%
    18:00 +8°C° 0 mm 3 mps 730 mmHg 87%
    19:00 +7°C° 0 mm 2 mps 731 mmHg 90%
    20:00 +7°C° 0 mm 2 mps 731 mmHg 91%
    21:00 +6°C° 0 mm 2 mps 731 mmHg 92%
    22:00 +6°C° 0 mm 2 mps 731 mmHg 93%
    23:00 +5°C° 0 mm 2 mps 730 mmHg 93%

    21 September, Friday

    Time Temperature Precipitation Wind Pressure Humidity
    00:00 +5°C° 0 mm 2 mps 730 mmHg 93%
    01:00 +5°C° 0 mm 2 mps 730 mmHg 94%
    02:00 +5°C° 0 mm 2 mps 730 mmHg 94%
    03:00 +4°C° 0 mm 2 mps 730 mmHg 94%
    04:00 +4°C° 0 mm 2 mps 731 mmHg 94%
    05:00 +4°C° 0 mm 2 mps 731 mmHg 94%
    06:00 +4°C° 0 mm 2 mps 731 mmHg 93%
    07:00 +5°C° 0 mm 2 mps 731 mmHg 93%
    08:00 +7°C° 0 mm 3 mps 732 mmHg 85%
    09:00 +9°C° 0 mm 3 mps 732 mmHg 77%
    10:00 +11°C° 0 mm 4 mps 732 mmHg 68%
    11:00 +10°C° 0 mm 5 mps 732 mmHg 65%
    12:00 +12°C° 0 mm 5 mps 732 mmHg 62%
    13:00 +13°C° 0 mm 5 mps 732 mmHg 59%
    14:00 +13°C° 0 mm 5 mps 733 mmHg 62%
    15:00 +13°C° 0 mm 5 mps 733 mmHg 65%
    16:00 +12°C° 0 mm 5 mps 733 mmHg 68%
    17:00 +11°C° 0 mm 4 mps 733 mmHg 74%
    18:00 +10°C° 0 mm 3 mps 734 mmHg 80%
    19:00 +9°C° 0 mm 3 mps 734 mmHg 86%
    20:00 +9°C° 0 mm 2 mps 734 mmHg 89%
    21:00 +8°C° 0 mm 2 mps 734 mmHg 92%
    22:00 +7°C° 0 mm 2 mps 735 mmHg 95%
    23:00 +7°C° 0 mm 2 mps 735 mmHg 95%

    22 September, Saturday

    Time Temperature Precipitation Wind Pressure Humidity
    00:00 +7°C° 0 mm 2 mps 735 mmHg 95%
    01:00 +7°C° 0 mm 2 mps 735 mmHg 94%
    02:00 +7°C° 0 mm 2 mps 735 mmHg 94%
    03:00 +7°C° 0 mm 2 mps 736 mmHg 94%
    04:00 +7°C° 0 mm 2 mps 736 mmHg 94%
    05:00 +7°C° 0 mm 2 mps 736 mmHg 94%
    06:00 +7°C° 0 mm 3 mps 737 mmHg 94%
    07:00 +7°C° 0 mm 3 mps 737 mmHg 93%
    08:00 +8°C° 0 mm 3 mps 737 mmHg 88%
    09:00 +10°C° 0 mm 4 mps 737 mmHg 82%
    10:00 +11°C° 0 mm 4 mps 737 mmHg 76%
    11:00 +12°C° 0 mm 4 mps 738 mmHg 73%
    12:00 +12°C° 0 mm 4 mps 738 mmHg 69%
    13:00 +13°C° 0 mm 4 mps 738 mmHg 66%
    14:00 +13°C° 0 mm 4 mps 738 mmHg 67%
    15:00 +13°C° 0 mm 4 mps 738 mmHg 69%
    16:00 +13°C° 0 mm 4 mps 738 mmHg 70%
    17:00 +11°C° 0 mm 4 mps 738 mmHg 77%
    18:00 +10°C° 0 mm 3 mps 738 mmHg 84%
    19:00 +8°C° 0 mm 2 mps 738 mmHg 92%
    20:00 +8°C° 0 mm 2 mps 738 mmHg 93%
    21:00 +7°C° 0 mm 2 mps 738 mmHg 94%
    22:00 +7°C° 0 mm 2 mps 738 mmHg 95%
    23:00 +6°C° 0 mm 2 mps 738 mmHg 94%

    23 September, Sunday

    Time Temperature Precipitation Wind Pressure Humidity
    00:00 +6°C° 0 mm 2 mps 738 mmHg 94%
    01:00 +7°C° 0 mm 1 mps 738 mmHg 94%
    02:00 +7°C° 0 mm 1 mps 738 mmHg 94%
    03:00 +6°C° 0 mm 1 mps 738 mmHg 94%
    04:00 +5°C° 0 mm 2 mps 738 mmHg 94%
    05:00 +5°C° 0 mm 2 mps 738 mmHg 94%
    06:00 +5°C° 0 mm 2 mps 738 mmHg 94%
    07:00 +5°C° 0 mm 2 mps 738 mmHg 93%
    08:00 +8°C° 0 mm 2 mps 738 mmHg 84%
    09:00 +10°C° 0 mm 3 mps 738 mmHg 75%
    10:00 +12°C° 0 mm 4 mps 738 mmHg 66%
    11:00 +13°C° 0 mm 4 mps 737 mmHg 63%
    12:00 +15°C° 0 mm 4 mps 737 mmHg 59%
    13:00 +17°C° 0 mm 4 mps 737 mmHg 56%
    14:00 +17°C° 0 mm 4 mps 737 mmHg 57%
    15:00 +17°C° 0 mm 4 mps 737 mmHg 58%
    16:00 +17°C° 0 mm 4 mps 737 mmHg 60%
    17:00 +14°C° 0 mm 3 mps 737 mmHg 69%
    18:00 +12°C° 0 mm 3 mps 737 mmHg 78%
    19:00 +10°C° 0 mm 2 mps 737 mmHg 88%
    20:00 +9°C° 0 mm 2 mps 737 mmHg 89%
    21:00 +9°C° 0 mm 2 mps 737 mmHg 90%
    22:00 +8°C° 0 mm 2 mps 737 mmHg 92%
    23:00 +9°C° 0 mm 1 mps 737 mmHg 92%
    Show more